Regional Weather Roundup
Issued by NWS

Home | Current Version | Previous Version | Text Only | Print | Product List | Glossary On
Versions: 1 2 3 4 5 6 7 8 9 10 11 12 13 14 15 16 17 18 19 20 21 22 23 24 25 26 27 28 29 30 31 32 33 34 35 36 37 38 39 40 41 42 43 44 45 46 47 48 49 50
000
ASUS43 KLSX 310107
RWRMO

WEATHER SUMMARY FOR MISSOURI
NATIONAL WEATHER SERVICE SPRINGFIELD MO
800 PM CDT WED JUL 30 2014

NOTE: "FAIR" INDICATES FEW OR NO CLOUDS BELOW 12,000 FEET WITH NO
       SIGNIFICANT WEATHER AND/OR OBSTRUCTIONS TO VISIBILITY.
       CURRENT SKY AND/OR WEATHER CONDITIONS ARE NOT AVAILABLE FOR
       CHILLICOTHE AND FARMINGTON.

MOZ001>031-035>038-043-044-053-054-310200-
...NORTHERN AND WESTERN MISSOURI...

CITY           SKY/WX    TMP DP  RH WIND       PRES   REMARKS
KANSAS CTY INT MOCLDY    76  59  55 N6        30.08S
KANSAS C DTWN  MOCLDY    78  57  48 E6        30.06S
LEE`S SUMMIT   CLOUDY    74  60  61 CALM      30.08S
ST JOSEPH      CLEAR     77  58  51 CALM      30.08R
CHILLICOTHE      N/A     77  59  53 CALM      30.07S
KIRKSVILLE     PTCLDY    74  58  57 E3        30.08S

$$
MOZ066>068-077>081-088>096-101>105-310200-
...SOUTHWEST MISSOURI...

CITY           SKY/WX    TMP DP  RH WIND       PRES   REMARKS
SPRINGFIELD    LGT RAIN  67  65  93 S5        30.09S
JOPLIN         LGT RAIN  66  65  96 NE6       30.08S FOG

$$
MOZ032>034-039>042-045>050-055>058-069>072-310200-
...CENTRAL MISSOURI...

CITY           SKY/WX    TMP DP  RH WIND       PRES   REMARKS
COLUMBIA       MOCLDY    75  60  59 SW8       30.06S
JEFFERSON CITY CLOUDY    75  57  53 W5        30.05R
ROLLA          CLOUDY    70  61  73 SW5       30.06S
SEDALIA        CLOUDY    73  59  61 SW7       30.08R
WHITEMAN AFB   PTCLDY    73  52  49 SW5       30.07R
OSAGE BEACH    CLOUDY    70  64  83 CALM      30.07S

$$
MOZ051-052-059>065-310200-
...EAST CENTRAL MISSOURI...

CITY           SKY/WX    TMP DP  RH WIND       PRES   REMARKS
ST LOUIS INTL  MOCLDY    79  56  45 N6        30.04S
SPIRIT OF STL  CLOUDY    76  60  57 CALM      30.03S
ST CHARLES     PTCLDY    74  64  71 N5        30.03S

$$
MOZ072>076-082>087-097>100-106>115-310200-
...SOUTH CENTRAL AND SOUTHEAST MISSOURI...

CITY           SKY/WX    TMP DP  RH WIND       PRES   REMARKS
CAPE GIRARDEAU CLOUDY    70  65  84 S3        30.05F
FARMINGTON     CLOUDY    72  63  73 CALM      30.09S
POPLAR BLUFF   CLOUDY    73  63  70 CALM      30.05S
WEST PLAINS    CLOUDY    67  64  90 NW3       30.10S

$$


USA.gov is the U.S. government's official web portal to all federal, state and local government web resources and services.